Location: Newark
(45.5000°N, 11.4167°E)
Time: 09:32:40
(UTC+00:00)

Vanguard 2 - Pass Details

Date: 29 August 2019
Orbit: 554 x 2937 km, 32.9° (Epoch: 17 September)

Event Time Altitude Azimuth Distance (km) Brightness Sun altitude
Rises 09:22:02 0° 206° (SSW) 2,749 10.6 46.5°
Reaches altitude 10° 09:26:08 10° 164° (SSE) 2,044 10.6 47.0°
Maximum altitude 09:27:02 11° 152° (SSE) 2,070 10.7 47.1°
Drops below altitude 10° 09:28:00 10° 140° (SE) 2,175 10.8 47.2°
Sets 09:33:14 0° 103° (ESE) 3,585 11.5 47.8°
